Location: Helsinki
(60.1699°N, 24.9384°E)
Time: 10:18:40
(UTC+02:00)

Vanguard 2 Rocket - Pass Details

Date: 22 September 2023
Orbit: 552 x 3312 km, 32.9° (Epoch: 05 December)

Event Time Altitude Azimuth Distance (km) Brightness Sun altitude
Rises 16:34:31 0° 245° (WSW) 7,297 13.1 18.8°
Reaches altitude 10° 16:41:07 10° 234° (SW) 6,180 13.7 18.1°
Maximum altitude 16:53:46 23° 192° (SSW) 4,604 11.3 16.7°
Drops below altitude 10° 17:03:48 10° 148° (SSE) 4,805 10.6 15.7°
Sets 17:08:03 0° 135° (SE) 5,381 10.7 15.2°
